Location: Songkhla
(7.2000°N, 100.6000°E)
Time: 19:50:01
(UTC+07:00)

SL-8 DEB - All Passes

Search period start: 11 February 2026 00:00
Search period end: 21 February 2026 00:00
Orbit: 1414 x 1696 km, 73.9° (Epoch: 2 June)

Date Brightness Start Highest point End Pass type
(mag) Time Alt. Az. Time Alt. Az. Time Alt. Az.
11 Feb - 03:01:06 10° N 03:10:40 56° ENE 03:19:47 10° SSE visible
11 Feb - 05:03:03 10° NW 05:09:42 21° W 05:16:13 10° SW visible
11 Feb - 15:48:31 10° SSW 15:57:10 87° WNW 16:06:19 10° NNE daylight
12 Feb - 02:28:14 10° NNE 02:37:03 37° ENE 02:45:29 10° SE visible
12 Feb - 04:27:57 10° NW 04:36:17 33° W 04:44:22 10° SSW visible
12 Feb - 15:15:09 10° S 15:23:39 64° E 15:32:37 10° NNE daylight
12 Feb - 17:18:30 10° WSW 17:23:20 16° WNW 17:28:18 10° NW daylight
13 Feb - 01:55:57 10° NNE 02:03:22 24° ENE 02:10:32 10° SE visible
13 Feb - 03:53:34 10° NNW 04:02:51 50° W 04:11:46 10° S visible
13 Feb - 14:42:15 10° SSE 14:50:13 41° E 14:58:31 10° NNE daylight
13 Feb - 16:42:41 10° SW 16:49:35 26° WNW 16:56:47 10° NNW daylight
14 Feb - 01:24:47 10° NE 01:29:36 15° ENE 01:34:20 10° ESE visible
14 Feb - 03:19:38 10° NNW 03:29:24 74° W 03:38:42 10° S visible
14 Feb - 14:09:53 10° SSE 14:16:47 26° E 14:23:53 10° NE daylight
14 Feb - 16:07:55 10° SW 16:15:54 41° WNW 16:24:20 10° N daylight
15 Feb - 02:46:05 10° N 02:55:53 78° ENE 03:05:12 10° SSE visible
15 Feb - 04:51:02 10° WNW 04:54:46 13° W 04:58:28 10° WSW visible
15 Feb - 13:38:36 10° SE 13:43:22 16° E 13:48:14 10° ENE daylight
15 Feb - 15:33:46 10° SSW 15:42:18 62° WNW 15:51:22 10° N daylight
16 Feb - 02:12:52 10° N 02:22:19 53° ENE 02:31:18 10° SSE visible
16 Feb - 04:14:31 10° NW 04:21:22 22° W 04:28:04 10° SW visible
16 Feb - 15:00:03 10° SSW 15:08:45 89° E 15:17:59 10° NNE daylight
17 Feb - 01:40:05 10° NNE 01:48:42 35° ENE 01:56:54 10° SE visible
17 Feb - 03:39:32 10° NW 03:47:57 35° W 03:56:06 10° SSW visible
17 Feb - 14:26:44 10° S 14:35:15 60° E 14:44:15 10° NNE daylight
17 Feb - 16:29:35 10° WSW 16:34:53 17° WNW 16:40:23 10° NW daylight
18 Feb - 01:07:54 10° NNE 01:15:00 23° ENE 01:21:50 10° ESE night (unlit)
18 Feb - 03:05:13 10° NNW 03:14:31 53° W 03:23:26 10° S visible
18 Feb - 13:53:52 10° SSE 14:01:48 39° E 14:10:06 10° NE daylight
18 Feb - 15:53:59 10° SW 16:01:09 28° WNW 16:08:40 10° NNW daylight
19 Feb - 00:37:02 10° NE 00:41:13 13° ENE 00:45:19 10° E night (unlit)
19 Feb - 02:31:20 10° NNW 02:41:04 78° WSW 02:50:17 10° S visible
19 Feb - 13:21:38 10° SSE 13:28:24 25° E 13:35:23 10° NE daylight
19 Feb - 15:19:20 10° SW 15:27:29 43° WNW 15:36:08 10° N daylight
20 Feb - 01:57:49 10° N 02:07:33 74° ENE 02:16:45 10° SSE night (unlit)
20 Feb - 04:02:13 10° WNW 04:06:26 14° W 04:10:35 10° SW night (unlit)
20 Feb - 12:50:32 10° SE 12:54:59 15° E 12:59:31 10° ENE daylight
20 Feb - 14:45:14 10° SSW 14:53:53 66° WNW 15:03:05 10° N daylight
